Left ArrowRight Arrow

Hourly Observations for October 29, 2015

Temp ( °F °C ) Dew Point ( °F °C ) Humidity (%) Winds ( mph kmh ) Pressure ( in mb ) Visibility ( mi km ) Precip ( " mm )
12:53 am 00:53 Cloudy 80 26.7 71 21.7 74 74 ESE 5 7 29.94 1014 10 16 0.00 0.00
1:53 am 01:53 Mostly Clear 79 26.1 70 21.1 74 74 ESE 6 9 29.94 1014 10 16 0.00 0.00
2:53 am 02:53 Partly Cloudy 78 25.6 70 21.1 76 76 E 6 9 29.93 1014 10 16 0.00 0.00
3:53 am 03:53 Clear 78 25.6 70 21.1 76 76 E 5 7 29.93 1013 10 16 0.00 0.00
4:53 am 04:53 Clear 77 25 70 21.1 79 79 E 6 9 29.93 1014 10 16 0.00 0.00
5:32 am 05:32 Mostly Cloudy 77 25 70 21 79 79 E 5 7 29.94 1014 10 16 0.00 0.00
5:45 am 05:45 Partly Cloudy 77 25 70 21 79 79 E 6 9 29.94 1014 10 16 0.00 0.00
5:53 am 05:53 Mostly Clear 77 25 70 21.1 79 79 E 5 7 29.94 1014 10 16 0.00 0.00
6:53 am 06:53 Sunny 77 25 70 21.1 79 79 E 5 7 29.95 1014 10 16 0.00 0.00
7:53 am 07:53 Sunny 82 27.8 71 21.7 69 69 ESE 5 7 29.97 1015 10 16 0.00 0.00
8:53 am 08:53 Partly Cloudy 82 28 72 22 70 70 SSW 6 9 29.97 1015 10 16 0.00 0.00
9:53 am 09:53 Mostly Sunny 84 28.9 72 22.2 67 67 SW 9 15 29.97 1015 10 16 0.00 0.00
11:53 am 11:53 Sunny 86 30 72 22.2 63 63 WSW 9 15 29.94 1014 10 16 0.00 0.00
12:53 pm 12:53 Mostly Sunny 86 30 72 22.2 63 63 W 9 15 29.92 1013 10 16 0.00 0.00
1:53 pm 13:53 Mostly Sunny 87 30.6 73 22.8 63 63 NNW 9 15 29.90 1012 10 16 0.00 0.00
2:53 pm 14:53 Sunny 86 30 73 22.8 65 65 NW 12 19 29.88 1012 10 16 0.00 0.00
3:53 pm 15:53 Partly Cloudy 86 30 73 22.8 65 65 NW 12 19 29.88 1012 10 16 0.00 0.00
4:53 pm 16:53 Partly Cloudy 85 29.4 72 22.2 65 65 NW 10 17 29.90 1012 10 16 0.00 0.00
5:53 pm 17:53 Clear 83 28.3 72 22.2 70 70 NW 7 11 29.91 1013 10 16 0.00 0.00
6:53 pm 18:53 Partly Cloudy 82 27.8 72 22.2 72 72 WSW 3 6 29.93 1013 10 16 0.00 0.00
7:53 pm 19:53 Clear 82 27.8 72 22.2 72 72 SSW 3 6 29.95 1014 10 16 0.00 0.00
8:53 pm 20:53 Partly Cloudy 81 27.2 71 21.7 72 72 SE 6 9 29.96 1015 10 16 0.00 0.00
9:53 pm 21:53 Clear 81 27.2 70 21.1 69 69 ESE 7 11 29.96 1015 10 16 0.00 0.00
10:53 pm 22:53 Cloudy 81 27.2 68 20 65 65 E 7 11 29.96 1015 10 16 0.00 0.00
11:53 pm 23:53 Cloudy 82 27.8 68 20 63 63 Calm 29.96 1014 10 16 0.00 0.00

Powered by Vaisala Xweather